STARLINK-1545, 46156

Orbit data source: Space-Track

STARLINK-1545, 46156 is a payload satellite owned by SpaceX/Seattle (US) in LEO that was launched on Tue, 18 Aug 2020 UTC via an FALCON 9 launch vehicle from the Air Force Eastern Test Range (AFETR). Payload-class satellites include a variety of spacecraft equipped with specific instruments for various scientific and technological missions. These include communications satellites like Starlink; space stations such as the ISS; scientific satellites like the Hubble; Earth observation satellites from companies like Planet Labs, Umbra, and HawkEye 360; GPS; miniature CubeSats for education and research; and military/defense satellites.

Loading next visibility...
Identifier
46156, 2020-057AR
Orbit
LEO
Country
Flag of USUS
Related business
Manufacturer
SpaceX/Seattle
Mission
Partially operational Commercial Communications
Bus & Motor
STARLINK, Unknown motor
Mass
260 kg wet, ~248 kg dry
Launch date (UTC)
2020-08-18 (6 years ago)
Launch vehicle
FALCON 9
Launch site
Air Force Eastern Test Range (AFETR)
Object type
Payload
Rocket body
Debris
Shape & HBR
Box + 1 Pan, 10.1 m
Radar Cross Section
13.562 m², Large (>1 m²)

Expand to show TLE details & history
Last TLE update: 8 hours ago

TLE from 8 hours ago
0 STARLINK-1545
1 46156U 20057AR  26123.00002315  .00075209  00000-0  53247-3 0  9998
2 46156  53.0410 350.8228 0005334 158.6515 251.7167 15.73313737  5825
Epoch: 2026-05-03T00:00Z
TLE epoch observation values (Epoch: 2026-05-03T00:00:02.000Z)
Latitude
38.06984°
Longitude
165.78057°
Altitude
353.729 km
Speed
7.701 km/s
True Right ascension
01h 46m 47s
True Declination
37° 53' 35"
Sunlit
Object was in daylight at epoch
Visualization orbit readout
Latitude
Unknown
Longitude
Unknown
Altitude
Unknown
Speed
Unknown
Apparent Right ascension
Unknown
Apparent Declination
Unknown
Sunlit
N/A
Visualization observer readout
Local Sidereal Time
15:46:32
Azimuth
Unknown
Elevation
Unknown
Doppler factor
Unknown
Orbital elements
Apogee altitude
353.303 km
Perigee altitude
346.126 km
Semi-major axis
6,727.852 km
Eccentricity
0.00053
Inclination
53.041°
RAAN
350.8228°
Arg. of periapsis
158.6515°
True anomaly
251.65867°
Mean anomaly
251.7167°
Eccentric anomaly
251.68769°
Mean motion
3.93304 °/min
Orbital period
91.53 mins
BSTAR
0.00053247
Loading maneuver chart data...
Computing Atmospheric mass density...
Loading historical data...
Loading historical data...
Loading historical data...
Loading historical data...
Loading historical data...
Loading historical data...
Loading historical data...

Documentation

Showing up to 5 results
|